[[{"header":{"parameterUnit":"m.s-1","parameterCategory":1,"la1":30.2991,"la2":30.254,"lo1":-89.0895,"lo2":-89.0444,"dy":0.0017,"dx":0.0017,"nx":28,"ny":28,"refTime":"2024-04-12T09:00:00:Z","depth":0,"parameterNumber":2,"parameterNumberName":"U-component_of_WINDS"},"data":[0,0,0,0,0,0,0,0,0,0,0,0,0,0,0,0,0,0,0,0,0,0,0,0,0,0,0,0,0,0,0,0,0,0,0,0,0,0,0,0,0,0,0,0,0,0,0,0,0,0,0,0,0,0,0,0,0,0,2.7721,2.7722,0,2.782,2.7821,2.7822,2.7865,2.7865,2.7865,2.7865,2.7968,2.7971,2.7973,0,0,0,0,0,0,0,0,0,0,0,0,0,2.7572,2.7574,2.7721,2.7722,2.7723,2.782,2.7821,2.7823,2.7865,2.7865,2.7865,2.7865,2.7967,2.797,2.7974,0,0,0,0,0,0,0,0,0,0,0,0,0,2.765,2.7575,2.7721,2.7756,2.7761,2.782,2.7821,2.7823,2.7865,2.7865,2.7865,2.7865,2.7966,2.797,2.7974,2.8006,0,0,2.7987,2.7989,0,0,0,0,0,0,0,0,2.7646,2.7656,2.775,2.7754,2.7759,2.783,2.7806,2.7884,2.7865,2.7826,2.7865,2.7865,2.7922,2.793,2.7949,2.801,2.8015,2.7988,2.799,2.7992,2.7993,0,0,0,0,0,0,0,2.764,2.7652,2.776,2.7751,2.7757,2.7768,2.7779,2.7821,2.7874,2.7829,2.7832,2.7844,2.7925,2.7945,2.7952,2.8016,2.7988,2.7991,2.7994,2.7996,2.811,2.8111,0,0,0,0,0,0,2.7629,2.7647,2.7757,2.7763,2.77,2.7771,2.7783,2.7807,2.7874,2.7884,2.7844,2.7845,2.7938,2.7947,2.7956,2.7998,2.7992,2.7996,2.7999,2.811,2.8111,2.8111,0,0,0,0,0,0,2.7625,2.7638,2.7753,2.7706,2.7722,2.7774,2.7801,2.781,2.783,2.7885,2.7895,2.7854,2.7938,2.795,2.7993,2.8002,2.7998,2.8002,2.811,2.811,2.8111,2.8082,0,0,0,0,0,0,2.7621,2.7637,2.7648,2.7706,2.7724,2.7788,2.7801,2.7812,2.7837,2.784,2.7898,2.7907,2.7939,2.7987,2.7998,2.8008,2.8006,2.8109,2.811,2.8111,2.8082,2.8081,2.8081,0,0,0,0,0,2.7615,2.7636,2.7648,2.7662,2.7739,2.7788,2.7799,2.7834,2.7838,2.785,2.7886,2.7905,2.8,2.7991,2.8003,2.8015,2.8109,2.811,2.8111,2.8083,2.8082,2.8081,0,0,0,0,0,0,2.7578,2.7644,2.7659,2.7698,2.7737,2.7795,2.7812,2.7832,2.7871,2.7872,2.7915,2.7928,2.7968,2.7996,2.7985,2.805,2.8056,2.8059,2.803,2.803,2.8029,2.8021,2.8009,0,0,0,0,0,2.7574,2.7608,2.7664,2.7694,2.7713,2.7759,2.7782,2.7806,2.7848,2.7865,2.7904,2.7944,2.7984,2.8008,2.8047,2.8087,2.8101,2.8102,2.8101,2.81,2.8102,2.8127,2.8128,2.8114,2.8114,2.8114,0,0,2.7567,2.7607,2.7626,2.7687,2.772,2.7755,2.7772,2.7808,2.7834,2.7871,2.7914,2.7944,2.7993,2.8035,2.8055,2.8059,2.811,2.8101,2.81,2.8103,2.8128,2.813,2.8131,2.8115,2.8115,2.8115,0,0,2.7572,2.7605,2.7634,2.7667,2.7717,2.7748,2.7755,2.7811,2.7832,2.7876,2.7905,2.7937,2.8003,2.8037,2.8063,2.8083,2.8102,2.8095,2.809,2.8114,2.8115,2.8116,2.8124,2.8126,2.8097,2.8097,2.8097,0,2.7556,2.7609,2.7647,2.7681,2.7708,2.7742,2.7773,2.7803,2.7863,2.7882,2.7886,2.7971,2.8006,2.8057,2.8062,2.8081,2.8092,2.8088,2.8112,2.8113,2.8115,2.8123,2.8126,2.8096,2.8096,2.8096,2.8096,0,2.7588,2.7624,2.7642,2.7699,2.7728,2.776,2.7804,2.783,2.7852,2.7883,2.7929,2.7972,2.8021,2.8036,2.8058,2.8091,2.8092,2.8103,2.811,2.8114,2.8123,2.8126,2.8094,2.8094,2.8095,2.8095,0,0,2.757,2.7649,2.7655,2.7682,2.7741,2.777,2.7805,2.7853,2.7874,2.7915,2.7946,2.8002,2.8013,2.8043,2.8069,2.809,2.8104,2.8099,2.8101,2.8099,2.8144,2.8135,2.8138,2.8118,2.8118,2.8119,2.814,0,2.7583,2.7646,2.7682,2.773,2.7765,2.7799,2.783,2.787,2.79,2.7935,2.7969,2.8009,2.802,2.8038,2.806,2.8097,2.8114,2.8096,2.8148,2.8149,2.8134,2.8142,2.8132,2.815,2.8144,2.8144,2.8145,0,2.7606,2.7646,2.7698,2.7754,2.777,2.7796,2.7844,2.7877,2.7923,2.7944,2.7978,2.8005,2.8044,2.8048,2.8104,2.8091,2.8115,2.8136,2.8138,2.8144,2.8147,2.8148,2.8157,2.8159,2.815,2.815,2.8149,0,2.7588,2.7656,2.7696,2.7718,2.7784,2.7802,2.7831,2.7877,2.7904,2.7947,2.7965,2.8011,2.8036,2.8072,2.8111,2.811,2.8164,2.817,2.8183,2.8182,2.8192,2.8191,2.8204,2.8207,2.8207,2.8207,2.8207,0,2.7599,2.7629,2.7689,2.7713,2.7749,2.7791,2.7826,2.7857,2.7899,2.7931,2.7964,2.7994,2.8044,2.808,2.8111,2.8153,2.8165,2.8183,2.8191,2.818,2.8178,2.8196,2.8196,2.8208,2.8207,2.8207,2.8207,0,2.7585,2.7626,2.7672,2.7731,2.7747,2.7771,2.7822,2.7848,2.7881,2.7922,2.7934,2.7986,2.803,2.8073,2.8133,2.8154,2.8196,2.8207,2.818,2.8185,2.8195,2.8193,2.822,2.8226,2.8224,2.8224,2.8224,0,2.7588,2.7613,2.7675,2.7699,2.7727,2.7764,2.7792,2.7836,2.7864,2.792,2.7939,2.7986,2.8026,2.8096,2.814,2.8187,2.8198,2.8205,2.8206,2.8194,2.8199,2.8197,2.82,2.8204,2.8203,2.8203,2.8203,0,2.7591,2.7611,2.7649,2.7695,2.7728,2.7767,2.7806,2.7824,2.7875,2.7905,2.7951,2.7982,2.8044,2.8091,2.8143,2.8174,2.8197,2.8203,2.8208,2.8197,2.8181,2.819,2.8178,2.8202,2.8202,2.8202,2.8202,2.8202,2.7586,2.761,2.7658,2.77,2.7735,2.7772,2.7799,2.7836,2.7875,2.7928,2.7952,2.7999,2.8047,2.8119,2.815,2.8188,2.8193,2.8201,2.8203,2.8204,2.8202,2.8175,2.8197,2.8198,2.8198,2.8198,2.8198,0,2.7591,2.7624,2.7662,2.7717,2.7751,2.777,2.7816,2.7843,2.7884,2.7926,2.7965,2.8019,2.8065,2.8113,2.8162,2.8184,2.8196,2.8195,2.8194,2.8201,2.8194,2.8185,2.8185,2.8185,2.8185,2.8185,2.8185,2.8185,2.7597,2.7639,2.7664,2.7724,2.7757,2.7802,2.7827,2.7862,2.7896,2.7955,2.7993,2.8024,2.8069,2.8122,2.8166,2.8179,2.8196,2.8192,2.8208,2.8201,2.8201,2.8202,2.8193,2.8195,2.8195,2.8212,2.8212,2.8213]},{"header":{"parameterUnit":"m.s-1","parameterCategory":1,"la1":30.2991,"la2":30.254,"lo1":-89.0895,"lo2":-89.0444,"dy":0.0017,"dx":0.0017,"nx":28,"ny":28,"refTime":"2024-04-12T09:00:00:Z","depth":0,"parameterNumber":3,"parameterNumberName":"V-component_of_WINDS"},"data":[0,0,0,0,0,0,0,0,0,0,0,0,0,0,0,0,0,0,0,0,0,0,0,0,0,0,0,0,0,0,0,0,0,0,0,0,0,0,0,0,0,0,0,0,0,0,0,0,0,0,0,0,0,0,0,0,0,0,-3.1207,-3.1207,0,-3.119,-3.1189,-3.1189,-3.1228,-3.1229,-3.123,-3.1232,-3.1208,-3.1207,-3.1205,0,0,0,0,0,0,0,0,0,0,0,0,0,-3.127,-3.1269,-3.1207,-3.1207,-3.1207,-3.119,-3.1189,-3.1189,-3.1228,-3.1229,-3.1231,-3.1232,-3.1209,-3.1207,-3.1205,0,0,0,0,0,0,0,0,0,0,0,0,0,-3.1247,-3.1269,-3.1207,-3.1224,-3.1225,-3.119,-3.1189,-3.1189,-3.1227,-3.1229,-3.1231,-3.1233,-3.121,-3.1207,-3.1204,-3.115,0,0,-3.1196,-3.1195,0,0,0,0,0,0,0,0,-3.1248,-3.1244,-3.1222,-3.1223,-3.1224,-3.1213,-3.1203,-3.1176,-3.1227,-3.1226,-3.1232,-3.1234,-3.1208,-3.1206,-3.1198,-3.1149,-3.1148,-3.1196,-3.1194,-3.1193,-3.1192,0,0,0,0,0,0,0,-3.125,-3.1245,-3.12,-3.1221,-3.1223,-3.1231,-3.123,-3.1198,-3.1207,-3.1227,-3.1229,-3.1227,-3.1209,-3.12,-3.1198,-3.1148,-3.1196,-3.1194,-3.1192,-3.1191,-3.1054,-3.1052,0,0,0,0,0,0,-3.125,-3.1246,-3.12,-3.1199,-3.1241,-3.1229,-3.1227,-3.1214,-3.1207,-3.1208,-3.1225,-3.1229,-3.1204,-3.1201,-3.1197,-3.1134,-3.1193,-3.1191,-3.1189,-3.1056,-3.1054,-3.1052,0,0,0,0,0,0,-3.1251,-3.1245,-3.1201,-3.1224,-3.1219,-3.1226,-3.1211,-3.1213,-3.1205,-3.1206,-3.1208,-3.1215,-3.1206,-3.1201,-3.1162,-3.1133,-3.1189,-3.1187,-3.1059,-3.1056,-3.1053,-3.1006,0,0,0,0,0,0,-3.1253,-3.1245,-3.1225,-3.1223,-3.1217,-3.1167,-3.1209,-3.1211,-3.1201,-3.1205,-3.1197,-3.1198,-3.1207,-3.1166,-3.1159,-3.1131,-3.1185,-3.1061,-3.1057,-3.1054,-3.101,-3.1001,-3.0994,0,0,0,0,0,-3.1255,-3.1211,-3.1224,-3.1218,-3.1193,-3.1166,-3.1162,-3.1175,-3.1198,-3.1178,-3.1179,-3.1198,-3.1138,-3.1162,-3.1155,-3.1124,-3.1063,-3.1058,-3.1054,-3.1013,-3.1003,-3.0994,0,0,0,0,0,0,-3.1207,-3.1211,-3.1225,-3.118,-3.1173,-3.1172,-3.1147,-3.1163,-3.1147,-3.1152,-3.1167,-3.1165,-3.1123,-3.112,-3.1147,-3.1072,-3.1104,-3.1098,-3.1076,-3.1066,-3.1058,-3.1059,-3.1183,0,0,0,0,0,-3.1192,-3.1171,-3.1175,-3.1135,-3.1131,-3.1139,-3.1128,-3.1139,-3.1131,-3.1127,-3.1125,-3.1115,-3.1095,-3.108,-3.1061,-3.101,-3.1009,-3.0986,-3.0978,-3.0972,-3.0966,-3.094,-3.0929,-3.1037,-3.1037,-3.1037,0,0,-3.116,-3.1159,-3.1144,-3.1125,-3.1121,-3.1098,-3.1136,-3.111,-3.1092,-3.1122,-3.1086,-3.1085,-3.1075,-3.103,-3.101,-3.1026,-3.0936,-3.0966,-3.0961,-3.0958,-3.0934,-3.0924,-3.0915,-3.1034,-3.1034,-3.1035,0,0,-3.1089,-3.1086,-3.1053,-3.1049,-3.1042,-3.1049,-3.1041,-3.1038,-3.1039,-3.1004,-3.1026,-3.1005,-3.0969,-3.0961,-3.0952,-3.0882,-3.0898,-3.0875,-3.0833,-3.0808,-3.0799,-3.0792,-3.0766,-3.0757,-3.0869,-3.0869,-3.0869,0,-3.1048,-3.1016,-3.1033,-3.1006,-3.0997,-3.1026,-3.0992,-3.0986,-3.0973,-3.0965,-3.0984,-3.094,-3.0935,-3.089,-3.0873,-3.0865,-3.0856,-3.0875,-3.0799,-3.0792,-3.0785,-3.0761,-3.0752,-3.0866,-3.0866,-3.0867,-3.0867,0,-3.0967,-3.0944,-3.0918,-3.0907,-3.0895,-3.0865,-3.0877,-3.0863,-3.0875,-3.0879,-3.0843,-3.0839,-3.082,-3.081,-3.0821,-3.0766,-3.0777,-3.0797,-3.0829,-3.0772,-3.075,-3.074,-3.0862,-3.0863,-3.0864,-3.0865,0,0,-3.0863,-3.0865,-3.0855,-3.0851,-3.0847,-3.0829,-3.08,-3.0784,-3.0771,-3.0762,-3.0737,-3.0707,-3.0727,-3.0717,-3.0727,-3.0705,-3.0649,-3.0728,-3.0728,-3.0713,-3.0589,-3.0573,-3.0562,-3.0661,-3.066,-3.0658,-3.059,0,-3.0793,-3.0745,-3.0761,-3.0712,-3.0691,-3.072,-3.0695,-3.0689,-3.0693,-3.0675,-3.0679,-3.0657,-3.0685,-3.0679,-3.0658,-3.066,-3.0624,-3.0666,-3.0638,-3.0636,-3.0639,-3.0551,-3.0534,-3.0469,-3.0581,-3.058,-3.0579,0,-3.0704,-3.0694,-3.0643,-3.0645,-3.0637,-3.0614,-3.0601,-3.0584,-3.0578,-3.0583,-3.0573,-3.0589,-3.056,-3.0594,-3.0554,-3.0582,-3.0572,-3.0571,-3.0569,-3.0566,-3.0603,-3.0545,-3.0449,-3.0439,-3.0565,-3.0566,-3.0567,0,-3.0634,-3.0607,-3.0574,-3.0569,-3.057,-3.0554,-3.0553,-3.0549,-3.0539,-3.0528,-3.0521,-3.0505,-3.0497,-3.0484,-3.0495,-3.0519,-3.0453,-3.0488,-3.0455,-3.0455,-3.0439,-3.044,-3.034,-3.0434,-3.0434,-3.0434,-3.0434,0,-3.0553,-3.0521,-3.0542,-3.0521,-3.0487,-3.0505,-3.047,-3.0472,-3.0469,-3.0449,-3.0472,-3.0452,-3.0469,-3.045,-3.0459,-3.0425,-3.042,-3.0422,-3.0425,-3.042,-3.042,-3.0412,-3.0417,-3.0431,-3.0432,-3.0433,-3.0433,0,-3.0467,-3.0481,-3.0446,-3.0451,-3.0452,-3.0426,-3.0429,-3.041,-3.0417,-3.0391,-3.0386,-3.0395,-3.0375,-3.0386,-3.0363,-3.0369,-3.0325,-3.0334,-3.0328,-3.033,-3.0297,-3.0299,-3.0188,-3.0174,-3.0277,-3.0276,-3.0275,0,-3.0415,-3.0391,-3.0394,-3.0384,-3.0382,-3.0364,-3.0355,-3.0372,-3.0361,-3.0355,-3.0336,-3.0318,-3.0305,-3.0271,-3.0275,-3.0259,-3.0267,-3.0229,-3.0264,-3.0261,-3.0266,-3.0267,-3.0265,-3.0221,-3.022,-3.0219,-3.0219,0,-3.032,-3.0328,-3.0315,-3.0304,-3.0292,-3.0284,-3.0277,-3.0267,-3.0285,-3.0271,-3.0252,-3.0242,-3.0221,-3.0203,-3.019,-3.0188,-3.0205,-3.0208,-3.0199,-3.0193,-3.0191,-3.0192,-3.0308,-3.021,-3.0211,-3.0211,-3.0212,-3.0212,-3.0249,-3.023,-3.023,-3.0214,-3.0212,-3.0206,-3.0188,-3.0194,-3.0179,-3.0165,-3.0176,-3.0154,-3.015,-3.0134,-3.013,-3.0112,-3.0127,-3.0114,-3.0111,-3.0108,-3.0103,-3.0195,-3.0109,-3.011,-3.011,-3.011,-3.011,0,-3.0155,-3.0157,-3.0143,-3.0134,-3.0122,-3.0143,-3.0137,-3.0125,-3.0106,-3.0102,-3.0089,-3.0067,-3.0051,-3.0055,-3.004,-3.0024,-3.0032,-3.0019,-3.002,-3.0019,-3.0091,-3.01,-3.0013,-3.0013,-3.0013,-3.0013,-3.0013,-3.0013,-3.0104,-3.0074,-3.0082,-3.0051,-3.0053,-3.0032,-3.0027,-3.0022,-3.0019,-2.9994,-2.9982,-2.9985,-2.9985,-2.997,-2.9955,-2.9957,-2.995,-2.9934,-2.9939,-3.0005,-3.0014,-3.0023,-3.0032,-2.9933,-2.9933,-2.9869,-2.9868,-2.9868]}]]